Flag for Japan Weather past 2 weeks in Suzuka, Japan

Now
51 °F

Cool.


Feels Like: 46 °F
Forecast: 38 / 52 °F
Wind: 12 mph from West

Location: Tsu

Current Time: Dec 29, 2014 at 2:26:52 PM

Latest Report: Dec 29, 2014 at 1:00 PM


Visibility: N/A

Pressure: 29.76 "Hg

Humidity: 64%

Dew point: 39 °F

Location of SuzukaLocation

Historic Weather in Suzuka — Graph

°F

Suzuka temperature yesterday

Maximum temperature yesterday: 44 °F (at 4:00 PM)
Minimum temperature yesterday: 30 °F (at 6:00 AM)
Average temperature yesterday: 38 °F

Past Weeks' High & Low Weather Summary

 TemperatureHumidityPressure
High52 °F (Dec 21, 1:00 PM)94% (Dec 20, 5:00 PM)30.52 "Hg (Dec 20, 5:00 PM)
Low30 °F (Dec 28, 6:00 AM)25% (Dec 17, 12:00 PM)29.57 "Hg (Dec 16, 4:00 PM)
Average41 °F62%30.12 "Hg
* Reported Dec 14 1:00 PM — Dec 29 1:00 PM, Suzuka, Weather by CustomWeather, © 2014

Note: Actual official high and low records may vary slightly from our data, if they occured in-between our weather recording intervals... More about our weather records

Advertising

Suzuka weather history for previous 24 hours

 ConditionsComfort  
Time TempWeatherWind HumidityBarometerVisibility
1:00 PM
Dec 29
51 °FCool.12 mph64%29.76 "HgN/A
12:00 PM51 °FCool.9 mph66%29.78 "HgN/A
11:00 AM49 °FCool.9 mph70%29.82 "HgN/A
10:00 AM45 °FQuite cool.8 mph86%29.86 "HgN/A
9:00 AM44 °FOvercast.6 mph87%29.86 "Hg9 mi
8:00 AM41 °FQuite cool.3 mph93%29.86 "HgN/A
7:00 AM42 °FQuite cool.3 mph92%29.86 "HgN/A
5:00 AM40 °FQuite cool.3 mph94%29.87 "HgN/A
4:00 AM40 °FQuite cool.5 mph93%29.89 "HgN/A
3:00 AM40 °FQuite cool.6 mph92%29.93 "HgN/A
2:00 AM40 °FChilly.6 mph92%29.94 "HgN/A
1:00 AM40 °FChilly.5 mph88%29.97 "HgN/A
12:00 AM40 °FChilly.3 mph85%30.02 "HgN/A
11:00 PM
Dec 28
40 °FChilly.5 mph87%30.06 "HgN/A
10:00 PM40 °FQuite cool.2 mph86%30.08 "HgN/A
9:00 PM40 °FLight rain. Overcast.5 mph81%30.10 "Hg6 mi
8:00 PM41 °FQuite cool.3 mph80%30.12 "HgN/A
7:00 PM42 °FQuite cool.3 mph72%30.11 "HgN/A
6:00 PM43 °FQuite cool.2 mph55%30.12 "HgN/A
5:00 PM44 °FQuite cool.2 mph53%30.13 "HgN/A
4:00 PM44 °FQuite cool.2 mph53%30.14 "HgN/A
3:00 PM43 °FOvercast.2 mph53%30.15 "Hg16 mi
2:00 PM42 °FQuite cool.2 mph51%30.17 "HgN/A
Weather by CustomWeather, © 2014

See weather overviewHow to use our weather pages